QPF
0.02 0.05 0.10 0.12 0.17 0.17 0.17 0.12 0.07 0.06 0.02 0.03 0.03 0.03 0.02 0.02 0.03 0.05 0.18 0.26 0.19 0.11 0.08 0.08 0.07 0.06 0.05 0.04 0.04 0.04 0.04 0.04 0.07 0.08 0.08 0.06 0.05 0.04 0.04 0.04 0.06 0.10 0.07 0.05 0.04 0.04 0.03 0.03 0.04
0.06 0.10 0.12 0.15 0.19 0.13 0.12 0.09 0.07 0.04 0.02 0.02 0.01 0.02 0.02 0.03 0.04 0.08 0.22 0.29 0.19 0.11 0.06 0.05 0.06 0.05 0.03 0.02 0.02 0.04 0.04 0.03 0.05 0.08 0.09 0.06 0.05 0.05 0.04 0.05 0.15 0.17 0.08 0.05 0.05 0.03 0.02 0.02 0.04
0.10 0.14 0.16 0.19 0.17 0.10 0.09 0.08 0.04 0.03 0.02 0.01 0.01 0.01 0.03 0.05 0.06 0.09 0.17 0.22 0.18 0.08 0.04 0.03 0.03 0.03 0.02 0.01 0.02 0.03 0.02 0.02 0.03 0.06 0.10 0.10 0.07 0.08 0.07 0.07 0.11 0.07 0.06 0.06 0.05 0.03 0.02 0.03 0.06
0.10 0.13 0.17 0.16 0.13 0.08 0.07 0.05 0.03 0.02 0.02 0.01 0.01 0.03 0.06 0.06 0.05 0.10 0.14 0.11 0.08 0.05 0.03 0.02 0.02 0.02 0.03 0.02 0.02 0.02 0.02 0.02 0.03 0.05 0.12 0.12 0.07 0.07 0.06 0.05 0.06 0.07 0.06 0.06 0.03 0.02 0.03 0.04 0.07
0.14 0.19 0.19 0.11 0.07 0.05 0.04 0.04 0.02 0.01 0.01 0.02 0.02 0.04 0.09 0.09 0.08 0.10 0.11 0.10 0.08 0.05 0.03 0.02 0.03 0.04 0.04 0.03 0.02 0.02 0.02 0.02 0.04 0.07 0.11 0.10 0.09 0.07 0.05 0.05 0.08 0.09 0.06 0.04 0.02 0.02 0.04 0.04 0.06
0.16 0.15 0.12 0.11 0.07 0.04 0.03 0.02 0.01 0.01 0.03 0.04 0.03 0.04 0.11 0.11 0.09 0.10 0.07 0.08 0.06 0.06 0.05 0.03 0.03 0.04 0.04 0.03 0.02 0.03 0.03 0.03 0.04 0.05 0.06 0.06 0.07 0.06 0.05 0.07 0.11 0.08 0.05 0.03 0.03 0.02 0.04 0.03 0.04
0.18 0.10 0.08 0.08 0.06 0.04 0.03 0.02 0.02 0.02 0.03 0.04 0.04 0.05 0.11 0.11 0.09 0.07 0.05 0.05 0.05 0.04 0.05 0.04 0.02 0.04 0.05 0.05 0.04 0.03 0.04 0.03 0.03 0.03 0.04 0.05 0.06 0.06 0.06 0.09 0.11 0.07 0.03 0.02 0.03 0.02 0.02 0.02 0.04
0.13 0.09 0.07 0.05 0.03 0.03 0.02 0.01 0.02 0.02 0.02 0.02 0.03 0.05 0.08 0.07 0.07 0.07 0.06 0.05 0.05 0.04 0.03 0.06 0.04 0.02 0.02 0.03 0.03 0.02 0.03 0.03 0.03 0.04 0.04 0.04 0.06 0.06 0.07 0.07 0.08 0.05 0.03 0.02 0.02 0.02 0.01 0.02 0.03
0.08 0.08 0.06 0.03 0.02 0.03 0.02 0.01 0.02 0.02 0.02 0.02 0.03 0.04 0.04 0.03 0.05 0.09 0.07 0.06 0.05 0.05 0.08 0.10 0.08 0.03 0.02 0.02 0.02 0.04 0.05 0.05 0.05 0.05 0.05 0.05 0.05 0.05 0.05 0.06 0.06 0.04 0.03 0.02 0.01 0.01 0.01 0.02 0.02
0.05 0.05 0.04 0.02 0.02 0.02 0.01 0.01 0.02 0.04 0.04 0.03 0.02 0.02 0.02 0.02 0.04 0.06 0.05 0.05 0.04 0.06 0.09 0.07 0.05 0.04 0.04 0.03 0.03 0.04 0.04 0.04 0.04 0.05 0.04 0.03 0.04 0.05 0.04 0.06 0.07 0.04 0.04 0.04 0.04 0.03 0.03 0.03 0.02
0.03 0.03 0.03 0.02 0.01 0.01 0.02 0.02 0.03 0.03 0.04 0.04 0.03 0.02 0.02 0.02 0.04 0.04 0.03 0.04 0.05 0.05 0.07 0.05 0.03 0.03 0.02 0.01 0.02 0.03 0.03 0.05 0.06 0.10 0.07 0.03 0.03 0.04 0.06 0.08 0.06 0.04 0.04 0.04 0.04 0.04 0.03 0.04 0.04
0.02 0.02 0.02 0.02 0.01 0.01 0.02 0.04 0.04 0.04 0.06 0.06 0.06 0.03 0.02 0.03 0.05 0.04 0.03 0.04 0.04 0.04 0.05 0.03 0.02 0.02 0.02 0.01 0.02 0.03 0.04 0.04 0.05 0.06 0.09 0.06 0.06 0.06 0.07 0.07 0.06 0.04 0.04 0.05 0.06 0.06 0.04 0.06 0.06
0.02 0.02 0.02 0.02 0.01 0.01 0.01 0.02 0.03 0.06 0.06 0.05 0.04 0.04 0.03 0.05 0.05 0.04 0.04 0.06 0.06 0.04 0.02 0.01 0.01 0.02 0.01 0.01 0.02 0.02 0.02 0.03 0.04 0.05 0.06 0.08 0.08 0.06 0.05 0.04 0.04 0.04 0.04 0.07 0.07 0.06 0.04 0.06 0.09
0.01 0.01 0.02 0.02 0.01 0.01 0.01 0.01 0.02 0.04 0.04 0.02 0.03 0.02 0.02 0.04 0.05 0.05 0.05 0.05 0.04 0.03 0.02 0.01 0.01 0.01 0.01 0.01 0.02 0.03 0.02 0.02 0.02 0.03 0.04 0.03 0.03 0.04 0.03 0.02 0.02 0.03 0.04 0.08 0.08 0.07 0.09 0.05 0.04
0.01 0.01 0.01 0.01 0.01 0.01 0.01 0.01 0.01 0.02 0.02 0.02 0.02 0.01 0.02 0.03 0.03 0.03 0.02 0.01 0.02 0.02 0.01 0.01 0.01 0.01 0.01 0.01 0.02 0.02 0.01 0.01 0.02 0.03 0.02 0.01 0.02 0.03 0.04 0.03 0.02 0.03 0.04 0.06 0.06 0.07 0.10 0.06 0.04
0.01 0.01 0.01 0.01 0.01 0.02 0.02 0.03 0.02 0.01 0.00 0.01 0.01 0.01 0.01 0.01 0.01 0.01 0.01 0.00 0.01 0.01 0.01 0.01 0.01 0.01 0.02 0.01 0.02 0.01 0.02 0.01 0.02 0.03 0.02 0.02 0.04 0.07 0.05 0.02 0.02 0.03 0.04 0.04 0.03 0.05 0.07 0.06 0.05
0.03 0.02 0.01 0.01 0.01 0.02 0.04 0.04 0.05 0.02 0.01 0.01 0.01 0.01 0.01 0.00 0.01 0.00 0.00 0.00 0.00 0.01 0.00 0.01 0.01 0.01 0.01 0.01 0.01 0.01 0.01 0.01 0.02 0.02 0.02 0.02 0.04 0.06 0.04 0.02 0.03 0.04 0.05 0.05 0.05 0.05 0.05 0.05 0.05
0.05 0.04 0.03 0.03 0.02 0.03 0.03 0.05 0.05 0.03 0.02 0.01 0.01 0.01 0.01 0.00 0.00 0.00 0.00 0.01 0.00 0.00 0.00 0.01 0.00 0.01 0.01 0.01 0.00 0.01 0.01 0.02 0.02 0.01 0.01 0.02 0.03 0.03 0.02 0.02 0.02 0.03 0.05 0.05 0.05 0.04 0.03 0.04 0.05
0.03 0.04 0.05 0.04 0.03 0.04 0.05 0.07 0.06 0.03 0.03 0.03 0.02 0.01 0.01 0.00 0.00 0.00 0.00 0.01 0.00 0.00 0.00 0.00 0.00 0.00 0.01 0.01 0.01 0.01 0.01 0.02 0.02 0.01 0.02 0.03 0.03 0.02 0.02 0.03 0.03 0.03 0.04 0.03 0.03 0.04 0.04 0.05 0.05
0.03 0.03 0.05 0.03 0.04 0.04 0.06 0.07 0.05 0.03 0.02 0.02 0.01 0.01 0.01 0.01 0.00 0.00 0.00 0.00 0.00 0.00 0.01 0.01 0.01 0.01 0.01 0.01 0.02 0.02 0.01 0.01 0.02 0.03 0.03 0.04 0.03 0.02 0.02 0.02 0.02 0.03 0.02 0.02 0.02 0.03 0.04 0.04 0.05
0.03 0.04 0.07 0.04 0.03 0.04 0.05 0.06 0.03 0.02 0.02 0.02 0.01 0.02 0.02 0.01 0.00 0.00 0.00 0.01 0.00 0.00 0.00 0.01 0.02 0.02 0.01 0.02 0.02 0.03 0.02 0.02 0.03 0.03 0.03 0.03 0.03 0.02 0.03 0.03 0.03 0.02 0.03 0.02 0.02 0.03 0.03 0.04 0.04
0.03 0.02 0.05 0.06 0.07 0.10 0.08 0.09 0.05 0.02 0.03 0.02 0.01 0.01 0.01 0.01 0.01 0.01 0.01 0.01 0.00 0.00 0.01 0.01 0.01 0.01 0.01 0.02 0.02 0.02 0.02 0.02 0.02 0.02 0.02 0.01 0.01 0.02 0.03 0.03 0.03 0.03 0.03 0.02 0.02 0.02 0.03 0.04 0.04
0.01 0.02 0.03 0.06 0.06 0.06 0.04 0.06 0.04 0.02 0.03 0.02 0.01 0.01 0.01 0.01 0.01 0.01 0.01 0.00 0.00 0.00 0.01 0.01 0.01 0.01 0.01 0.02 0.02 0.02 0.02 0.02 0.03 0.02 0.01 0.01 0.01 0.01 0.02 0.02 0.02 0.02 0.02 0.01 0.02 0.03 0.04 0.04 0.04
0.02 0.03 0.03 0.03 0.04 0.08 0.06 0.06 0.03 0.03 0.03 0.02 0.02 0.02 0.01 0.01 0.01 0.01 0.01 0.01 0.00 0.00 0.00 0.01 0.02 0.04 0.03 0.03 0.03 0.03 0.02 0.03 0.03 0.02 0.01 0.01 0.01 0.02 0.02 0.02 0.01 0.02 0.02 0.02 0.02 0.03 0.05 0.04 0.04
0.02 0.04 0.07 0.04 0.05 0.06 0.06 0.05 0.03 0.02 0.02 0.02 0.03 0.03 0.01 0.01 0.01 0.01 0.01 0.01 0.01 0.01 0.01 0.01 0.01 0.03 0.06 0.06 0.05 0.04 0.03 0.03 0.03 0.02 0.01 0.01 0.01 0.02 0.02 0.02 0.02 0.01 0.01 0.02 0.02 0.02 0.03 0.04 0.06
0.01 0.02 0.03 0.05 0.06 0.06 0.03 0.03 0.03 0.03 0.03 0.03 0.02 0.02 0.02 0.01 0.01 0.01 0.00 0.01 0.01 0.01 0.01 0.01 0.01 0.01 0.01 0.02 0.02 0.03 0.03 0.03 0.03 0.02 0.02 0.02 0.02 0.02 0.02 0.02 0.02 0.02 0.02 0.02 0.03 0.03 0.02 0.04 0.05
0.01 0.02 0.02 0.03 0.03 0.05 0.04 0.04 0.04 0.03 0.03 0.02 0.02 0.02 0.02 0.02 0.01 0.01 0.01 0.01 0.01 0.01 0.01 0.01 0.01 0.01 0.01 0.01 0.01 0.02 0.03 0.04 0.04 0.03 0.03 0.03 0.03 0.04 0.03 0.02 0.02 0.03 0.03 0.03 0.02 0.02 0.02 0.03 0.02
0.01 0.01 0.02 0.04 0.04 0.06 0.05 0.03 0.04 0.06 0.06 0.03 0.03 0.03 0.03 0.03 0.03 0.03 0.04 0.07 0.06 0.03 0.02 0.01 0.02 0.01 0.01 0.01 0.02 0.03 0.03 0.03 0.04 0.04 0.04 0.04 0.03 0.05 0.05 0.03 0.03 0.03 0.03 0.03 0.03 0.02 0.02 0.02 0.01
0.01 0.01 0.02 0.03 0.04 0.07 0.07 0.04 0.05 0.07 0.09 0.04 0.03 0.04 0.06 0.08 0.06 0.06 0.11 0.13 0.09 0.05 0.03 0.03 0.03 0.03 0.03 0.03 0.02 0.02 0.02 0.03 0.03 0.03 0.04 0.04 0.03 0.05 0.05 0.03 0.02 0.02 0.02 0.02 0.03 0.02 0.02 0.02 0.01
0.01 0.01 0.01 0.02 0.03 0.04 0.07 0.07 0.06 0.06 0.07 0.04 0.03 0.04 0.06 0.12 0.09 0.07 0.11 0.07 0.04 0.03 0.03 0.03 0.03 0.04 0.04 0.04 0.04 0.03 0.02 0.02 0.02 0.02 0.03 0.03 0.02 0.02 0.02 0.02 0.01 0.02 0.02 0.02 0.03 0.02 0.02 0.02 0.02
MSLP
1009.29 1010.14 1011.11 1012.03 1012.75 1013.16 1013.22 1012.99 1012.56 1012.11 1011.75 1011.60 1011.65 1011.88 1012.17 1012.43 1012.52 1012.41 1012.08 1011.59 1011.01 1010.44 1009.94 1009.55 1009.27 1009.08 1008.92 1008.76 1008.57 1008.35 1008.07 1007.75 1007.37 1006.93 1006.42 1005.86 1005.27 1004.69 1004.17 1003.72 1003.32 1002.88 1002.30 1001.40 1000.04 998.15 995.73 992.97 990.13
1009.53 1010.49 1011.51 1012.42 1013.08 1013.39 1013.35 1013.03 1012.53 1012.02 1011.61 1011.40 1011.39 1011.52 1011.72 1011.87 1011.89 1011.73 1011.40 1010.95 1010.45 1009.97 1009.57 1009.26 1009.04 1008.87 1008.73 1008.59 1008.42 1008.22 1007.97 1007.68 1007.32 1006.88 1006.35 1005.76 1005.13 1004.52 1003.97 1003.51 1003.08 1002.60 1001.88 1000.75 999.03 996.65 993.64 990.21 986.73
1009.98 1010.99 1011.99 1012.83 1013.37 1013.57 1013.42 1013.02 1012.47 1011.93 1011.51 1011.26 1011.19 1011.24 1011.33 1011.37 1011.30 1011.08 1010.74 1010.32 1009.89 1009.50 1009.19 1008.96 1008.80 1008.68 1008.56 1008.43 1008.28 1008.11 1007.89 1007.63 1007.29 1006.85 1006.31 1005.68 1005.00 1004.35 1003.76 1003.28 1002.83 1002.29 1001.48 1000.18 998.20 995.47 992.03 988.14 984.19
1010.62 1011.61 1012.52 1013.21 1013.61 1013.67 1013.43 1012.97 1012.41 1011.89 1011.48 1011.23 1011.12 1011.10 1011.09 1011.02 1010.85 1010.56 1010.20 1009.80 1009.43 1009.13 1008.90 1008.74 1008.63 1008.53 1008.42 1008.30 1008.16 1008.00 1007.82 1007.58 1007.26 1006.83 1006.27 1005.61 1004.89 1004.19 1003.57 1003.05 1002.58 1002.03 1001.19 999.82 997.75 994.88 991.25 987.15 983.00
1011.39 1012.27 1013.01 1013.52 1013.74 1013.67 1013.35 1012.88 1012.37 1011.91 1011.56 1011.35 1011.23 1011.16 1011.06 1010.88 1010.60 1010.25 1009.85 1009.47 1009.15 1008.91 1008.75 1008.64 1008.56 1008.46 1008.35 1008.21 1008.06 1007.90 1007.73 1007.51 1007.21 1006.79 1006.24 1005.56 1004.81 1004.07 1003.41 1002.87 1002.40 1001.87 1001.07 999.78 997.78 995.00 991.47 987.46 983.39
1012.16 1012.86 1013.39 1013.68 1013.72 1013.53 1013.18 1012.75 1012.33 1011.99 1011.75 1011.61 1011.51 1011.41 1011.23 1010.96 1010.59 1010.17 1009.75 1009.37 1009.09 1008.90 1008.78 1008.70 1008.62 1008.51 1008.36 1008.17 1007.99 1007.81 1007.63 1007.43 1007.16 1006.77 1006.23 1005.55 1004.80 1004.03 1003.35 1002.80 1002.33 1001.85 1001.16 1000.04 998.29 995.81 992.64 989.00 985.29
1012.79 1013.26 1013.55 1013.63 1013.51 1013.25 1012.91 1012.56 1012.28 1012.10 1012.01 1011.97 1011.92 1011.81 1011.58 1011.24 1010.80 1010.32 1009.88 1009.51 1009.25 1009.10 1009.01 1008.94 1008.84 1008.68 1008.46 1008.21 1007.97 1007.75 1007.56 1007.37 1007.13 1006.78 1006.28 1005.64 1004.89 1004.12 1003.42 1002.85 1002.40 1001.99 1001.44 1000.56 999.17 997.15 994.52 991.47 988.33
1013.18 1013.41 1013.47 1013.35 1013.12 1012.82 1012.54 1012.32 1012.22 1012.22 1012.30 1012.38 1012.39 1012.28 1012.03 1011.64 1011.15 1010.64 1010.18 1009.83 1009.60 1009.47 1009.40 1009.32 1009.19 1008.96 1008.67 1008.34 1008.03 1007.76 1007.54 1007.36 1007.16 1006.86 1006.43 1005.84 1005.12 1004.37 1003.66 1003.06 1002.61 1002.24 1001.84 1001.21 1000.21 998.72 996.73 994.38 991.93
1013.29 1013.31 1013.16 1012.90 1012.60 1012.32 1012.12 1012.06 1012.14 1012.33 1012.56 1012.76 1012.84 1012.76 1012.49 1012.07 1011.56 1011.04 1010.59 1010.26 1010.06 1009.96 1009.90 1009.81 1009.63 1009.35 1008.98 1008.57 1008.18 1007.85 1007.61 1007.44 1007.27 1007.04 1006.68 1006.16 1005.50 1004.77 1004.05 1003.43 1002.95 1002.60 1002.29 1001.88 1001.24 1000.26 998.91 997.26 995.52
1013.18 1013.02 1012.73 1012.37 1012.05 1011.81 1011.73 1011.82 1012.07 1012.42 1012.79 1013.08 1013.22 1013.16 1012.90 1012.48 1011.96 1011.46 1011.03 1010.73 1010.56 1010.49 1010.43 1010.33 1010.12 1009.79 1009.36 1008.88 1008.42 1008.05 1007.78 1007.61 1007.48 1007.32 1007.04 1006.60 1006.00 1005.31 1004.58 1003.93 1003.41 1003.03 1002.76 1002.50 1002.13 1001.57 1000.76 999.75 998.65
1012.94 1012.66 1012.29 1011.90 1011.59 1011.42 1011.44 1011.65 1012.03 1012.49 1012.95 1013.31 1013.48 1013.45 1013.20 1012.80 1012.31 1011.83 1011.44 1011.17 1011.04 1010.98 1010.93 1010.83 1010.60 1010.24 1009.77 1009.25 1008.75 1008.33 1008.05 1007.88 1007.77 1007.66 1007.45 1007.09 1006.58 1005.93 1005.21 1004.53 1003.96 1003.53 1003.24 1003.04 1002.84 1002.57 1002.18 1001.66 1001.07
1012.73 1012.40 1012.00 1011.62 1011.35 1011.24 1011.33 1011.62 1012.06 1012.58 1013.07 1013.44 1013.64 1013.62 1013.39 1013.02 1012.57 1012.13 1011.78 1011.55 1011.44 1011.39 1011.35 1011.25 1011.02 1010.65 1010.17 1009.63 1009.11 1008.68 1008.37 1008.19 1008.10 1008.02 1007.87 1007.59 1007.15 1006.56 1005.88 1005.19 1004.57 1004.08 1003.75 1003.54 1003.41 1003.31 1003.18 1002.99 1002.77
1012.68 1012.35 1011.97 1011.63 1011.40 1011.33 1011.46 1011.77 1012.20 1012.70 1013.16 1013.52 1013.70 1013.69 1013.50 1013.17 1012.77 1012.39 1012.07 1011.86 1011.75 1011.70 1011.65 1011.55 1011.33 1010.98 1010.52 1010.00 1009.49 1009.05 1008.72 1008.53 1008.43 1008.36 1008.24 1008.02 1007.65 1007.14 1006.52 1005.86 1005.23 1004.70 1004.31 1004.07 1003.94 1003.90 1003.90 1003.91 1003.90
1012.88 1012.59 1012.26 1011.97 1011.77 1011.72 1011.84 1012.10 1012.46 1012.88 1013.26 1013.56 1013.72 1013.71 1013.56 1013.28 1012.95 1012.61 1012.32 1012.12 1011.99 1011.91 1011.84 1011.73 1011.52 1011.20 1010.79 1010.32 1009.84 1009.42 1009.08 1008.86 1008.72 1008.63 1008.52 1008.34 1008.04 1007.62 1007.08 1006.49 1005.90 1005.38 1004.97 1004.69 1004.54 1004.50 1004.54 1004.62 1004.72
1013.33 1013.11 1012.84 1012.60 1012.44 1012.37 1012.43 1012.59 1012.83 1013.12 1013.39 1013.60 1013.72 1013.73 1013.62 1013.41 1013.14 1012.85 1012.58 1012.36 1012.19 1012.06 1011.95 1011.81 1011.61 1011.34 1010.99 1010.59 1010.17 1009.77 1009.44 1009.18 1008.99 1008.85 1008.72 1008.55 1008.30 1007.96 1007.53 1007.05 1006.55 1006.09 1005.70 1005.42 1005.25 1005.19 1005.23 1005.32 1005.46
1013.95 1013.82 1013.63 1013.45 1013.30 1013.21 1013.18 1013.21 1013.29 1013.41 1013.55 1013.66 1013.74 1013.76 1013.71 1013.57 1013.38 1013.13 1012.87 1012.61 1012.38 1012.18 1012.00 1011.83 1011.64 1011.41 1011.14 1010.82 1010.48 1010.13 1009.80 1009.50 1009.26 1009.05 1008.86 1008.67 1008.45 1008.19 1007.87 1007.52 1007.15 1006.79 1006.47 1006.23 1006.07 1006.01 1006.03 1006.12 1006.26
1014.64 1014.60 1014.51 1014.40 1014.28 1014.15 1014.03 1013.91 1013.82 1013.76 1013.74 1013.75 1013.79 1013.82 1013.82 1013.76 1013.64 1013.44 1013.19 1012.89 1012.59 1012.30 1012.05 1011.83 1011.64 1011.46 1011.27 1011.05 1010.80 1010.51 1010.19 1009.87 1009.56 1009.27 1009.01 1008.77 1008.56 1008.34 1008.12 1007.90 1007.66 1007.43 1007.22 1007.05 1006.94 1006.89 1006.92 1007.00 1007.13
1015.27 1015.35 1015.38 1015.36 1015.28 1015.14 1014.93 1014.67 1014.40 1014.16 1013.97 1013.86 1013.84 1013.87 1013.92 1013.95 1013.90 1013.76 1013.51 1013.19 1012.82 1012.45 1012.12 1011.85 1011.65 1011.52 1011.41 1011.29 1011.14 1010.92 1010.64 1010.30 1009.93 1009.56 1009.22 1008.92 1008.68 1008.48 1008.33 1008.21 1008.10 1007.99 1007.89 1007.81 1007.75 1007.74 1007.78 1007.87 1008.00
1015.77 1015.99 1016.18 1016.28 1016.28 1016.14 1015.86 1015.47 1015.02 1014.58 1014.22 1013.98 1013.88 1013.90 1013.99 1014.08 1014.11 1014.02 1013.80 1013.46 1013.04 1012.61 1012.21 1011.90 1011.71 1011.61 1011.58 1011.56 1011.50 1011.37 1011.13 1010.80 1010.39 1009.95 1009.53 1009.16 1008.87 1008.66 1008.54 1008.48 1008.45 1008.44 1008.43 1008.42 1008.43 1008.46 1008.52 1008.62 1008.76
1016.10 1016.51 1016.88 1017.16 1017.26 1017.15 1016.83 1016.31 1015.69 1015.04 1014.49 1014.09 1013.89 1013.86 1013.96 1014.10 1014.20 1014.18 1014.00 1013.67 1013.24 1012.77 1012.33 1011.99 1011.79 1011.72 1011.76 1011.82 1011.86 1011.81 1011.64 1011.33 1010.91 1010.42 1009.94 1009.50 1009.15 1008.91 1008.78 1008.74 1008.75 1008.78 1008.83 1008.87 1008.91 1008.97 1009.05 1009.16 1009.31
1016.30 1016.92 1017.52 1017.99 1018.23 1018.18 1017.81 1017.19 1016.39 1015.53 1014.77 1014.18 1013.84 1013.73 1013.81 1013.98 1014.14 1014.18 1014.07 1013.79 1013.37 1012.89 1012.44 1012.09 1011.89 1011.84 1011.92 1012.06 1012.17 1012.20 1012.10 1011.83 1011.42 1010.93 1010.41 1009.93 1009.53 1009.25 1009.08 1009.01 1009.02 1009.06 1009.11 1009.16 1009.21 1009.27 1009.35 1009.47 1009.62
1016.44 1017.30 1018.13 1018.80 1019.19 1019.20 1018.81 1018.08 1017.10 1016.03 1015.03 1014.24 1013.72 1013.51 1013.53 1013.71 1013.91 1014.03 1013.99 1013.78 1013.41 1012.96 1012.52 1012.17 1011.97 1011.93 1012.03 1012.21 1012.38 1012.48 1012.44 1012.23 1011.87 1011.40 1010.88 1010.39 1009.96 1009.64 1009.43 1009.33 1009.29 1009.30 1009.33 1009.35 1009.38 1009.42 1009.49 1009.59 1009.74
1016.59 1017.68 1018.74 1019.60 1020.12 1020.18 1019.77 1018.92 1017.78 1016.49 1015.26 1014.25 1013.56 1013.20 1013.16 1013.31 1013.55 1013.74 1013.79 1013.66 1013.37 1012.98 1012.56 1012.22 1012.01 1011.97 1012.07 1012.26 1012.46 1012.60 1012.62 1012.47 1012.18 1011.76 1011.29 1010.81 1010.39 1010.05 1009.82 1009.68 1009.60 1009.56 1009.54 1009.52 1009.51 1009.52 1009.56 1009.64 1009.77
1016.79 1018.07 1019.32 1020.33 1020.95 1021.05 1020.60 1019.65 1018.34 1016.87 1015.43 1014.22 1013.35 1012.86 1012.74 1012.87 1013.13 1013.38 1013.51 1013.48 1013.27 1012.94 1012.57 1012.24 1012.02 1011.96 1012.03 1012.20 1012.41 1012.57 1012.63 1012.55 1012.33 1011.99 1011.58 1011.16 1010.78 1010.46 1010.22 1010.05 1009.94 1009.86 1009.79 1009.73 1009.68 1009.66 1009.67 1009.73 1009.84
1017.02 1018.44 1019.80 1020.91 1021.58 1021.68 1021.19 1020.15 1018.72 1017.10 1015.50 1014.13 1013.13 1012.54 1012.34 1012.44 1012.72 1013.02 1013.23 1013.27 1013.15 1012.89 1012.56 1012.24 1012.02 1011.92 1011.96 1012.09 1012.28 1012.44 1012.52 1012.50 1012.35 1012.10 1011.78 1011.44 1011.12 1010.84 1010.62 1010.45 1010.32 1010.21 1010.12 1010.03 1009.96 1009.91 1009.91 1009.95 1010.04
1017.23 1018.71 1020.12 1021.24 1021.90 1021.97 1021.43 1020.34 1018.84 1017.13 1015.45 1014.00 1012.92 1012.27 1012.03 1012.12 1012.40 1012.74 1013.00 1013.12 1013.06 1012.86 1012.57 1012.27 1012.04 1011.91 1011.90 1011.99 1012.14 1012.29 1012.39 1012.41 1012.33 1012.16 1011.93 1011.68 1011.43 1011.21 1011.02 1010.87 1010.74 1010.63 1010.53 1010.43 1010.35 1010.30 1010.29 1010.34 1010.42
1017.35 1018.80 1020.17 1021.23 1021.84 1021.86 1021.28 1020.16 1018.65 1016.94 1015.28 1013.84 1012.76 1012.11 1011.86 1011.95 1012.24 1012.59 1012.89 1013.05 1013.04 1012.89 1012.64 1012.36 1012.12 1011.97 1011.93 1011.98 1012.10 1012.23 1012.34 1012.38 1012.36 1012.26 1012.11 1011.93 1011.75 1011.59 1011.44 1011.32 1011.21 1011.11 1011.01 1010.92 1010.86 1010.82 1010.83 1010.88 1010.97
1017.31 1018.66 1019.91 1020.86 1021.36 1021.31 1020.70 1019.60 1018.16 1016.55 1014.98 1013.64 1012.65 1012.06 1011.86 1011.96 1012.25 1012.61 1012.91 1013.09 1013.11 1012.99 1012.77 1012.52 1012.30 1012.15 1012.10 1012.13 1012.23 1012.35 1012.46 1012.52 1012.53 1012.48 1012.39 1012.28 1012.15 1012.03 1011.92 1011.82 1011.73 1011.64 1011.56 1011.49 1011.44 1011.43 1011.46 1011.53 1011.63
1017.08 1018.29 1019.36 1020.15 1020.52 1020.39 1019.78 1018.74 1017.42 1015.98 1014.60 1013.44 1012.61 1012.13 1012.00 1012.13 1012.42 1012.76 1013.05 1013.22 1013.25 1013.16 1012.98 1012.77 1012.59 1012.47 1012.43 1012.48 1012.57 1012.69 1012.81 1012.88 1012.91 1012.89 1012.83 1012.75 1012.66 1012.56 1012.47 1012.38 1012.30 1012.22 1012.15 1012.10 1012.08 1012.09 1012.14 1012.23 1012.35
1016.71 1017.74 1018.62 1019.21 1019.44 1019.24 1018.63 1017.69 1016.53 1015.31 1014.18 1013.25 1012.61 1012.28 1012.24 1012.40 1012.69 1013.00 1013.25 1013.40 1013.43 1013.36 1013.22 1013.07 1012.95 1012.89 1012.90 1012.98 1013.10 1013.24 1013.36 1013.44 1013.48 1013.48 1013.43 1013.36 1013.28 1013.19 1013.11 1013.02 1012.93 1012.86 1012.79 1012.75 1012.73 1012.76 1012.83 1012.93 1013.06
Thickness
5823 5820 5816 5806 5787 5772 5772 5788 5799 5800 5801 5807 5810 5804 5792 5784 5775 5766 5787 5795 5794 5793 5793 5793 5793 5793 5793 5793 5792 5792 5792 5791 5789 5789 5787 5786 5785 5784 5783 5781 5780 5779 5777 5775 5774 5773 5772 5771 5770
5826 5822 5811 5798 5776 5760 5773 5794 5798 5803 5809 5813 5810 5803 5794 5787 5791 5787 5789 5793 5794 5793 5793 5793 5793 5793 5792 5792 5792 5791 5791 5790 5789 5788 5786 5785 5784 5783 5782 5781 5779 5777 5776 5775 5773 5772 5771 5770 5769
5829 5825 5805 5789 5775 5768 5779 5798 5804 5811 5818 5815 5805 5802 5794 5788 5792 5791 5793 5795 5794 5793 5793 5792 5792 5792 5792 5791 5791 5791 5790 5789 5788 5787 5786 5785 5784 5783 5781 5780 5778 5777 5775 5774 5773 5772 5771 5770 5769
5826 5814 5802 5784 5778 5792 5799 5805 5811 5809 5812 5812 5804 5793 5794 5800 5799 5798 5798 5796 5794 5793 5793 5793 5792 5792 5791 5791 5790 5790 5789 5788 5787 5786 5785 5784 5783 5782 5780 5779 5777 5776 5775 5774 5773 5772 5771 5770 5769
5824 5805 5787 5778 5786 5802 5811 5816 5817 5808 5804 5803 5801 5787 5786 5799 5804 5801 5798 5796 5794 5793 5793 5793 5793 5792 5791 5791 5790 5789 5788 5788 5787 5786 5785 5784 5783 5781 5780 5778 5777 5775 5774 5773 5772 5771 5771 5770 5768
5810 5799 5777 5771 5789 5806 5815 5821 5817 5808 5803 5802 5797 5786 5784 5798 5799 5799 5799 5797 5796 5794 5794 5794 5793 5792 5791 5791 5790 5789 5788 5787 5787 5786 5785 5784 5782 5781 5779 5778 5776 5775 5774 5773 5773 5771 5771 5770 5769
5804 5790 5778 5783 5790 5799 5813 5823 5816 5808 5802 5803 5802 5786 5785 5794 5800 5801 5800 5797 5796 5795 5794 5793 5792 5792 5791 5790 5790 5789 5788 5787 5786 5785 5784 5784 5782 5781 5779 5777 5776 5775 5774 5774 5773 5772 5771 5770 5769
5817 5794 5784 5789 5794 5799 5819 5825 5821 5814 5807 5814 5809 5788 5783 5795 5803 5802 5799 5797 5795 5794 5793 5793 5792 5791 5791 5790 5789 5789 5788 5787 5786 5785 5784 5783 5782 5781 5780 5778 5777 5776 5775 5775 5774 5773 5772 5771 5769
5825 5792 5782 5794 5801 5808 5823 5820 5821 5825 5816 5813 5811 5804 5803 5806 5804 5799 5794 5792 5792 5792 5792 5792 5791 5791 5790 5790 5789 5788 5788 5787 5786 5785 5784 5783 5782 5781 5780 5778 5777 5776 5776 5775 5774 5773 5772 5771 5770
5816 5790 5799 5819 5823 5822 5825 5822 5820 5814 5806 5802 5803 5806 5808 5805 5800 5795 5791 5789 5789 5790 5791 5792 5791 5791 5790 5790 5789 5788 5788 5787 5785 5784 5783 5782 5782 5781 5780 5779 5778 5777 5776 5775 5775 5774 5773 5772 5771
5821 5810 5822 5831 5837 5835 5826 5824 5826 5810 5797 5801 5800 5800 5803 5801 5798 5795 5793 5793 5793 5794 5794 5793 5793 5792 5791 5791 5790 5789 5788 5787 5785 5784 5783 5782 5782 5781 5780 5779 5778 5777 5776 5776 5776 5775 5774 5773 5771
5827 5832 5838 5836 5842 5836 5829 5826 5820 5815 5809 5816 5814 5810 5805 5800 5797 5796 5795 5795 5796 5795 5795 5795 5795 5794 5793 5792 5791 5790 5788 5787 5786 5786 5785 5783 5782 5781 5781 5780 5779 5778 5776 5776 5776 5775 5774 5773 5772
5830 5833 5842 5844 5844 5840 5835 5826 5822 5817 5822 5821 5817 5811 5805 5802 5800 5801 5801 5799 5798 5796 5796 5797 5797 5795 5794 5793 5792 5791 5790 5789 5788 5787 5786 5785 5784 5782 5782 5781 5780 5779 5778 5777 5775 5775 5774 5774 5773
5838 5839 5840 5842 5841 5839 5830 5825 5821 5816 5824 5819 5814 5809 5808 5805 5803 5801 5800 5799 5799 5798 5798 5799 5798 5798 5796 5794 5793 5792 5791 5790 5789 5788 5788 5787 5786 5784 5783 5782 5781 5780 5779 5778 5776 5775 5774 5773 5773
5846 5833 5831 5836 5837 5834 5829 5812 5816 5823 5823 5816 5813 5812 5810 5808 5807 5804 5804 5803 5802 5801 5801 5800 5800 5799 5797 5795 5794 5793 5792 5791 5790 5789 5789 5788 5787 5785 5784 5782 5781 5780 5780 5778 5777 5776 5775 5774 5773
5835 5819 5808 5827 5834 5833 5819 5794 5816 5828 5822 5814 5814 5813 5811 5809 5810 5810 5809 5807 5806 5804 5802 5802 5803 5799 5798 5796 5795 5794 5793 5792 5791 5790 5789 5789 5788 5786 5785 5783 5781 5781 5780 5779 5777 5776 5773 5772 5771
5810 5798 5802 5817 5834 5831 5818 5802 5819 5828 5824 5816 5815 5815 5813 5810 5810 5812 5812 5811 5808 5806 5804 5802 5802 5799 5798 5796 5795 5794 5793 5792 5791 5790 5789 5788 5788 5787 5785 5784 5782 5781 5780 5778 5778 5775 5774 5771 5770
5796 5799 5803 5808 5826 5827 5815 5812 5822 5826 5824 5819 5818 5817 5814 5812 5812 5815 5815 5813 5811 5808 5806 5803 5801 5799 5798 5796 5794 5793 5791 5791 5790 5789 5788 5788 5787 5787 5785 5784 5783 5782 5779 5777 5776 5775 5774 5773 5771
5817 5809 5803 5814 5832 5822 5813 5812 5819 5823 5822 5819 5818 5817 5816 5816 5818 5818 5817 5815 5812 5809 5806 5803 5801 5799 5797 5794 5791 5788 5786 5788 5788 5788 5788 5788 5787 5786 5785 5784 5782 5781 5778 5777 5776 5775 5773 5771 5771
5820 5807 5806 5817 5831 5822 5810 5811 5822 5826 5825 5826 5823 5820 5820 5817 5816 5816 5816 5815 5812 5809 5807 5804 5802 5800 5798 5795 5793 5791 5789 5788 5788 5788 5788 5788 5787 5786 5786 5784 5782 5780 5778 5776 5775 5774 5770 5769 5769
5817 5810 5809 5810 5821 5822 5809 5800 5810 5823 5828 5828 5828 5827 5826 5823 5819 5817 5816 5815 5813 5810 5809 5807 5803 5801 5799 5797 5794 5791 5788 5786 5785 5784 5785 5786 5787 5786 5785 5784 5782 5780 5778 5775 5774 5773 5769 5765 5766
5809 5828 5825 5818 5802 5790 5800 5774 5798 5813 5816 5822 5825 5826 5826 5827 5824 5821 5818 5816 5815 5814 5813 5809 5805 5802 5800 5797 5793 5788 5784 5781 5782 5784 5784 5785 5786 5785 5785 5783 5782 5780 5778 5776 5774 5773 5770 5767 5763
5825 5837 5828 5819 5801 5788 5791 5776 5788 5809 5807 5817 5825 5828 5829 5829 5827 5824 5822 5820 5819 5817 5814 5810 5806 5803 5801 5798 5794 5789 5786 5784 5784 5784 5783 5783 5784 5784 5784 5783 5781 5779 5778 5776 5774 5772 5770 5767 5764
5839 5826 5816 5804 5789 5768 5782 5775 5778 5798 5811 5820 5827 5830 5831 5830 5830 5827 5826 5823 5819 5818 5814 5810 5806 5803 5801 5798 5794 5790 5787 5785 5783 5781 5780 5781 5781 5782 5782 5782 5780 5778 5777 5775 5773 5771 5769 5767 5764
5828 5795 5769 5764 5755 5759 5783 5778 5783 5815 5828 5830 5831 5833 5835 5834 5830 5827 5824 5821 5818 5815 5813 5810 5805 5802 5800 5798 5794 5792 5789 5787 5783 5782 5781 5779 5779 5779 5780 5780 5778 5777 5776 5775 5773 5770 5768 5766 5763
5817 5799 5767 5752 5749 5759 5777 5773 5797 5826 5837 5841 5841 5839 5837 5835 5833 5830 5827 5824 5820 5817 5814 5810 5805 5801 5800 5797 5795 5793 5791 5788 5786 5784 5782 5780 5779 5780 5780 5779 5778 5776 5775 5774 5771 5769 5767 5765 5763
5813 5799 5798 5772 5764 5753 5762 5781 5805 5826 5829 5832 5834 5834 5833 5833 5833 5830 5828 5825 5822 5818 5814 5811 5806 5801 5799 5797 5795 5792 5791 5789 5787 5785 5784 5782 5781 5780 5779 5778 5776 5775 5774 5772 5770 5767 5764 5763 5760
5827 5812 5787 5768 5749 5742 5759 5769 5778 5801 5809 5818 5822 5823 5826 5830 5830 5828 5826 5825 5822 5819 5816 5812 5808 5803 5800 5798 5795 5792 5790 5789 5787 5785 5782 5781 5781 5780 5778 5776 5775 5773 5772 5770 5767 5764 5762 5760 5757
5813 5804 5786 5768 5763 5745 5744 5763 5805 5806 5812 5814 5817 5820 5823 5825 5826 5826 5825 5824 5821 5818 5814 5810 5806 5802 5799 5797 5794 5792 5790 5788 5786 5783 5782 5780 5779 5778 5775 5774 5772 5770 5769 5767 5764 5762 5759 5756 5754
5818 5804 5787 5766 5760 5757 5749 5765 5817 5816 5819 5819 5818 5819 5822 5825 5826 5824 5821 5820 5817 5813 5811 5807 5804 5801 5798 5796 5793 5790 5788 5786 5783 5781 5781 5779 5777 5776 5774 5772 5770 5768 5766 5764 5762 5759 5757 5754 5751